NOAA 16 DEB

Satellite information

Favourite Embed

Satellite Type and Status

DEBRISDECAYED

Key statistics

Satellite NOAA 16 DEB at a glance.

Uptime

8814

Days in orbit

Revolutions

≈ 14.6

Per day

Orbit

SSO

Sun Synchronous Orbit

Inclination

99.0

Latest

Satellite identification and parameters

Extended collection of information and parameters for NOAA 16 DEB.

Object identification

Identified? True

Debris? True

Object name: NOAA 16 DEB

International designator: 2000-055RZ

Object number (NORAD): 42381

Object ID (CCSDS): 42381

Country: UNITED STATES OF AMERICA (US)

Current information (Y/N): Y

RCS size: SMALL

Orbital parameters

Decay date: Nov. 8, 2024

Period: 98.789 minutes

Inclination: 98.9778 deg

SMA: 7078.91 km

Apoapsis: 727.118 km

Periapsis: 674.433 km

RAAN: 260.059 deg

Eccentricy: 0.0037213

Argument of periapsis: 32.3293 deg

Mean anomaly: 328.0173 deg

Mean motion: 14.57649582 rev/day

Mean motion (dot): 0.00047493 rev/day2

B* drag term: 0.010259 1/REarth

Two-line elements (TLE)

Creation date: Feb. 11, 2024, 5:15 p.m.

Reference frame: TEME

Reference center: EARTH

Epoch: Feb. 11, 2024, 12:56 p.m. UTC

TLE line 0: 0 NOAA 16 DEB

TLE line 1: 1 42381U 00055RZ 24042.53908161 .00047493 00000-0 10259-1 0 9998

TLE line 2: 2 42381 98.9778 260.0590 0037213 32.3293 328.0173 14.57649582414259

Live tracking on map

Satellite NOAA 16 DEB has decayed and is no longer in orbit. No tracking available.

In-orbit conjunctions

Satellite NOAA 16 DEB has decayed and is no longer in orbit. No conjunctions available.

Associated space launch

The NOAA K, L and M POES satellites begin the fifth generation of improved environmental monitoring in support of NOAA missions. The instrument payload has significant improvements and additions/deletions. The instrument changes have effected the spacecraft subsystems and data formats.

NOAA 16 DEB was lifted into orbit during the mission ‘Titan II SLV | NOAA 16’, on board a Titan II SLV space rocket.

The launch took place on Sept. 21, 2000, 10:22 a.m. from Space Launch Complex 4W.

For more information about the launch, click the button.

Launch to space Titan II SLV | NOAA 16
Titan II SLV | NOAA 16

Agency: N/A

Status: Launch Successful

Launch date: Sept. 21, 2000, 10:22 a.m. UTC

Rocket: Titan II SLV

Launch pad: Space Launch Complex 4W

Location: Vandenberg SFB, CA, USA

...

Latest news about this satellite

There are no fresh news available about this satellite. Check back as we update our databases every day.


Newsletter sign-up

Weekly statistics, charts and insights to help you stay on top of the space industry.